Previsão horária em Barkowo

Hoje, 20 Outubro, Terça-feira

Tempo Temperatura Precipitação Vento Pressão Humidade
00:00 +7°C° 0 mm 2 m/s 760 mmHg 88%
01:00 +6°C° 0 mm 2 m/s 760 mmHg 86%
02:00 +6°C° 0 mm 2 m/s 759 mmHg 86%
03:00 +6°C° 0 mm 2 m/s 759 mmHg 85%
04:00 +5°C° 0 mm 3 m/s 759 mmHg 85%
05:00 +5°C° 0 mm 3 m/s 759 mmHg 83%
06:00 +5°C° 0 mm 3 m/s 759 mmHg 82%
07:00 +5°C° 0 mm 3 m/s 759 mmHg 83%
08:00 +6°C° 0 mm 4 m/s 758 mmHg 77%
09:00 +8°C° 0 mm 5 m/s 758 mmHg 72%
10:00 +9°C° 0 mm 6 m/s 757 mmHg 66%
11:00 +10°C° 0 mm 6 m/s 757 mmHg 64%
12:00 +13°C° 0 mm 6 m/s 756 mmHg 61%
13:00 +14°C° 0 mm 6 m/s 756 mmHg 59%
14:00 +13°C° 0 mm 6 m/s 755 mmHg 62%
15:00 +13°C° 0 mm 5 m/s 755 mmHg 64%
16:00 +13°C° 0 mm 5 m/s 754 mmHg 67%
17:00 +12°C° 0 mm 5 m/s 754 mmHg 68%
18:00 +10°C° 0 mm 5 m/s 754 mmHg 69%
19:00 +10°C° 0 mm 5 m/s 754 mmHg 70%
20:00 +10°C° 0 mm 5 m/s 754 mmHg 69%
21:00 +10°C° 0 mm 5 m/s 754 mmHg 69%
22:00 +10°C° 0 mm 5 m/s 754 mmHg 68%
23:00 +10°C° 0 mm 5 m/s 754 mmHg 68%

Amanhã, 21 Outubro, Quarta-feira

Tempo Temperatura Precipitação Vento Pressão Humidade
00:00 +10°C° 0 mm 4 m/s 754 mmHg 69%
01:00 +10°C° 0 mm 4 m/s 754 mmHg 69%
02:00 +11°C° 0 mm 4 m/s 754 mmHg 68%
03:00 +11°C° 0 mm 4 m/s 753 mmHg 67%
04:00 +11°C° 0 mm 4 m/s 753 mmHg 67%
05:00 +11°C° 0 mm 4 m/s 753 mmHg 67%
06:00 +10°C° 0 mm 3 m/s 753 mmHg 68%
07:00 +10°C° 0 mm 3 m/s 753 mmHg 69%
08:00 +11°C° 0 mm 3 m/s 753 mmHg 68%
09:00 +11°C° 0 mm 3 m/s 753 mmHg 68%
10:00 +11°C° 0 mm 3 m/s 753 mmHg 68%
11:00 +13°C° 0 mm 4 m/s 753 mmHg 65%
12:00 +14°C° 0 mm 4 m/s 753 mmHg 62%
13:00 +15°C° 0 mm 4 m/s 752 mmHg 59%
14:00 +15°C° 0 mm 4 m/s 752 mmHg 61%
15:00 +15°C° 0 mm 4 m/s 752 mmHg 63%
16:00 +14°C° 0 mm 4 m/s 751 mmHg 65%
17:00 +14°C° 0 mm 4 m/s 752 mmHg 66%
18:00 +13°C° 0 mm 4 m/s 752 mmHg 68%
19:00 +12°C° 0 mm 4 m/s 752 mmHg 69%
20:00 +12°C° 0 mm 4 m/s 752 mmHg 70%
21:00 +12°C° 0 mm 4 m/s 752 mmHg 70%
22:00 +12°C° 0 mm 3 m/s 752 mmHg 70%
23:00 +12°C° 0 mm 3 m/s 753 mmHg 69%

Depois de amanhã, 22 Outubro, Quinta-feira

Tempo Temperatura Precipitação Vento Pressão Humidade
00:00 +12°C° 0 mm 4 m/s 753 mmHg 68%
01:00 +12°C° 0 mm 4 m/s 753 mmHg 67%
02:00 +12°C° 0 mm 4 m/s 753 mmHg 67%
03:00 +12°C° 0 mm 4 m/s 753 mmHg 66%
04:00 +12°C° 0 mm 4 m/s 753 mmHg 66%
05:00 +12°C° 0 mm 4 m/s 753 mmHg 68%
06:00 +12°C° 0 mm 3 m/s 753 mmHg 70%
07:00 +12°C° 0 mm 3 m/s 754 mmHg 71%
08:00 +14°C° 0 mm 3 m/s 754 mmHg 68%
09:00 +16°C° 0 mm 3 m/s 754 mmHg 65%
10:00 +18°C° 0 mm 4 m/s 754 mmHg 62%
11:00 +19°C° 0 mm 3 m/s 754 mmHg 61%
12:00 +20°C° 0 mm 3 m/s 754 mmHg 59%
13:00 +21°C° 0 mm 3 m/s 754 mmHg 57%
14:00 +20°C° 0 mm 3 m/s 754 mmHg 62%
15:00 +19°C° 0 mm 3 m/s 753 mmHg 66%
16:00 +18°C° 0 mm 3 m/s 753 mmHg 70%
17:00 +17°C° 0 mm 3 m/s 753 mmHg 71%
18:00 +16°C° 0 mm 3 m/s 753 mmHg 73%
19:00 +16°C° 0 mm 3 m/s 754 mmHg 74%
20:00 +16°C° 0 mm 3 m/s 754 mmHg 73%
21:00 +16°C° 0 mm 3 m/s 754 mmHg 71%
22:00 +16°C° 0 mm 3 m/s 754 mmHg 70%
23:00 +15°C° 0 mm 4 m/s 753 mmHg 70%

23 Outubro, Sexta-feira

Tempo Temperatura Precipitação Vento Pressão Humidade
00:00 +15°C° 0 mm 4 m/s 753 mmHg 69%
01:00 +15°C° 0 mm 5 m/s 753 mmHg 68%
02:00 +15°C° 0 mm 5 m/s 753 mmHg 69%
03:00 +15°C° 0 mm 4 m/s 753 mmHg 70%
04:00 +15°C° 0 mm 4 m/s 752 mmHg 70%
05:00 +15°C° 0 mm 4 m/s 752 mmHg 73%
06:00 +14°C° 0 mm 4 m/s 752 mmHg 75%
07:00 +14°C° 0 mm 3 m/s 752 mmHg 78%
08:00 +15°C° 0 mm 4 m/s 752 mmHg 75%
09:00 +17°C° 0 mm 4 m/s 752 mmHg 73%
10:00 +17°C° 0 mm 5 m/s 752 mmHg 71%
11:00 +17°C° 0 mm 5 m/s 752 mmHg 70%
12:00 +19°C° 0 mm 4 m/s 752 mmHg 68%
13:00 +19°C° 0 mm 4 m/s 752 mmHg 67%
14:00 +18°C° 0 mm 3 m/s 752 mmHg 70%
15:00 +18°C° 0 mm 2 m/s 752 mmHg 74%
16:00 +17°C° 0 mm 2 m/s 751 mmHg 77%
17:00 +18°C° 0 mm 1 m/s 751 mmHg 80%
18:00 +16°C° 0 mm 1 m/s 751 mmHg 83%
19:00 +15°C° 0 mm 1 m/s 751 mmHg 86%
20:00 +15°C° 0.2 mm 1 m/s 751 mmHg 86%
21:00 +15°C° 0.2 mm 1 m/s 751 mmHg 87%
22:00 +15°C° 0.2 mm 1 m/s 751 mmHg 88%
23:00 +15°C° 1.2 mm 2 m/s 750 mmHg 90%

24 Outubro, Sábado

Tempo Temperatura Precipitação Vento Pressão Humidade
00:00 +15°C° 1.2 mm 2 m/s 750 mmHg 93%
01:00 +14°C° 1.2 mm 3 m/s 750 mmHg 95%
02:00 +14°C° 1.7 mm 2 m/s 750 mmHg 94%
03:00 +14°C° 1.7 mm 2 m/s 750 mmHg 94%
04:00 +14°C° 1.7 mm 2 m/s 749 mmHg 93%
05:00 +13°C° 0.2 mm 3 m/s 750 mmHg 91%
06:00 +13°C° 0.2 mm 4 m/s 750 mmHg 90%
07:00 +13°C° 0.2 mm 5 m/s 750 mmHg 88%
08:00 +12°C° 0.1 mm 7 m/s 751 mmHg 82%
09:00 +12°C° 0.1 mm 8 m/s 751 mmHg 76%
10:00 +12°C° 0.1 mm 9 m/s 752 mmHg 70%
11:00 +12°C° 0.2 mm 9 m/s 752 mmHg 68%
12:00 +12°C° 0.2 mm 8 m/s 753 mmHg 67%
13:00 +12°C° 0.2 mm 8 m/s 753 mmHg 65%
14:00 +12°C° 0 mm 7 m/s 753 mmHg 65%
15:00 +11°C° 0 mm 6 m/s 754 mmHg 66%
16:00 +10°C° 0 mm 5 m/s 754 mmHg 66%
17:00 +10°C° 0 mm 4 m/s 755 mmHg 69%
18:00 +8°C° 0 mm 4 m/s 755 mmHg 73%
19:00 +9°C° 0 mm 3 m/s 756 mmHg 77%
20:00 +8°C° 0 mm 3 m/s 756 mmHg 78%
21:00 +8°C° 0 mm 2 m/s 756 mmHg 79%
22:00 +7°C° 0 mm 2 m/s 757 mmHg 81%
23:00 +7°C° 0 mm 2 m/s 756 mmHg 81%

25 Outubro, Domingo

Tempo Temperatura Precipitação Vento Pressão Humidade
00:00 +7°C° 0 mm 2 m/s 756 mmHg 82%
01:00 +7°C° 0 mm 2 m/s 756 mmHg 82%
02:00 +7°C° 0 mm 2 m/s 756 mmHg 82%
03:00 +6°C° 0 mm 2 m/s 756 mmHg 81%
04:00 +6°C° 0 mm 2 m/s 756 mmHg 81%
05:00 +6°C° 0 mm 2 m/s 756 mmHg 81%
06:00 +6°C° 0 mm 2 m/s 756 mmHg 81%
07:00 +6°C° 0 mm 2 m/s 756 mmHg 81%
08:00 +8°C° 0 mm 3 m/s 756 mmHg 77%
09:00 +10°C° 0 mm 3 m/s 756 mmHg 74%
10:00 +11°C° 0 mm 3 m/s 755 mmHg 70%
11:00 +12°C° 0 mm 3 m/s 755 mmHg 67%
12:00 +13°C° 0 mm 4 m/s 755 mmHg 65%
13:00 +14°C° 0 mm 4 m/s 754 mmHg 62%
14:00 +14°C° 0 mm 3 m/s 754 mmHg 66%
15:00 +13°C° 0 mm 3 m/s 753 mmHg 69%
16:00 +13°C° 0 mm 3 m/s 753 mmHg 72%
17:00 +12°C° 0 mm 3 m/s 753 mmHg 76%
18:00 +11°C° 0 mm 3 m/s 753 mmHg 79%
19:00 +10°C° 0 mm 4 m/s 752 mmHg 82%
20:00 +10°C° 0 mm 4 m/s 752 mmHg 83%
21:00 +10°C° 0 mm 4 m/s 752 mmHg 84%
22:00 +9°C° 0 mm 3 m/s 752 mmHg 85%
23:00 +8°C° 0 mm 4 m/s 752 mmHg 85%

26 Outubro, Segunda-feira

Tempo Temperatura Precipitação Vento Pressão Humidade
00:00 +8°C° 0 mm 4 m/s 752 mmHg 85%
01:00 +8°C° 0 mm 4 m/s 751 mmHg 85%
02:00 +7°C° 0 mm 4 m/s 751 mmHg 86%
03:00 +8°C° 0 mm 3 m/s 751 mmHg 86%
04:00 +8°C° 0 mm 3 m/s 750 mmHg 87%
05:00 +8°C° 0 mm 3 m/s 750 mmHg 87%
06:00 +8°C° 0 mm 3 m/s 750 mmHg 87%
07:00 +8°C° 0 mm 2 m/s 750 mmHg 87%
08:00 +9°C° 0 mm 3 m/s 750 mmHg 83%
09:00 +10°C° 0 mm 3 m/s 750 mmHg 78%
10:00 +11°C° 0 mm 3 m/s 750 mmHg 74%
11:00 +12°C° 0 mm 3 m/s 749 mmHg 71%
12:00 +13°C° 0 mm 3 m/s 749 mmHg 68%
13:00 +14°C° 0 mm 3 m/s 749 mmHg 65%
14:00 +14°C° 0.3 mm 2 m/s 749 mmHg 72%
15:00 +13°C° 0.3 mm 2 m/s 749 mmHg 79%
16:00 +13°C° 0.3 mm 2 m/s 749 mmHg 86%
17:00 +13°C° 0.5 mm 2 m/s 749 mmHg 87%
18:00 +11°C° 0.5 mm 3 m/s 749 mmHg 88%
19:00 +11°C° 0.5 mm 3 m/s 749 mmHg 89%
20:00 +11°C° 0.1 mm 3 m/s 750 mmHg 90%
21:00 +11°C° 0.1 mm 3 m/s 750 mmHg 90%
22:00 +11°C° 0.1 mm 3 m/s 750 mmHg 91%
23:00 +12°C° 0 mm 2 m/s 750 mmHg 91%
Mostrar mais